Regional Weather Roundup
Issued by NWS

Home | Current Version | Previous Version | Text Only | Print | Product List | Glossary On
Versions: 1 2 3 4 5 6 7 8 9 10 11 12 13 14 15 16 17 18 19 20 21 22 23 24 25 26 27 28 29 30 31 32 33 34 35 36 37 38 39 40 41 42 43 44 45 46 47 48 49 50
000
ASUS43 KOAX 171902
RWRNE

WEATHER ROUNDUP FOR NEBRASKA
NATIONAL WEATHER SERVICE OMAHA NE
200 PM CDT TUE OCT 17 2017

NOTES: SATELLITE DATA IS BEING USED TO AUGMENT CLOUD COVER ABOVE
       12000 FEET.
       "FAIR" INDICATES FEW OR NO CLOUDS BELOW 12,000 FEET WITH NO
       SIGNIFICANT WEATHER AND/OR OBSTRUCTIONS TO VISIBILITY.


NEZ001>004-019>022-054>056-172000-
NEBRASKA PANHANDLE

CITY           SKY/WX    TMP DP  RH WIND       PRES   REMARKS
SCOTTSBLUFF    SUNNY     76  16  10 W13       30.07F
ALLIANCE       SUNNY     72  16  12 W16G23    30.06F
CHADRON        SUNNY     74  16  11 VRB7      30.01F
GORDON         FAIR      74  23  15 SW6       30.03F
KIMBALL        SUNNY     76  17  10 W17G25    30.13F
SIDNEY         SUNNY     78  21  12 SW14G25   30.11F
$$

NEZ057>060-069>072-079>082-172000-
SOUTHWEST NEBRASKA

CITY           SKY/WX    TMP DP  RH WIND       PRES   REMARKS
NORTH PLATTE   SUNNY     78  32  18 SW6       30.07F
IMPERIAL       SUNNY     77  21  12 VRB6      30.10F
LEXINGTON      SUNNY     76  35  22 S5        30.07F
MCCOOK         SUNNY     76  34  21 S8        30.08F
OGALLALA       SUNNY     75  25  15 SW5       30.08F
$$

NEZ005>010-023>029-035>040-094-172000-
NORTH CENTRAL NEBRASKA

CITY           SKY/WX    TMP DP  RH WIND       PRES   REMARKS
VALENTINE      SUNNY     79  28  15 SW9       30.00F
AINSWORTH      SUNNY     74  36  24 SW8       30.03F
BROKEN BOW     SUNNY     74  38  27 S9        30.06F
O`NEILL        SUNNY     76  42  29 SW7       30.03F
ORD            SUNNY     76  37  24 S9        30.04F
THEDFORD       SUNNY     79  29  16 SW13G20   30.05F
$$

NEZ041-046>049-061>064-073>077-083>087-172000-
SOUTH CENTRAL NEBRASKA

CITY           SKY/WX    TMP DP  RH WIND       PRES   REMARKS
GRAND ISLAND   SUNNY     77  37  23 CALM      30.05F
AURORA         SUNNY     75  44  32 CALM      30.05F
HASTINGS       SUNNY     75  36  24 S3        30.06F
HEBRON         SUNNY     72  42  33 SW3       30.06F
HOLDREGE       SUNNY     76  36  23 CALM      30.07F
KEARNEY        SUNNY     76  37  24 VRB3      30.07F
YORK           SUNNY     72  41  33 SW3       30.05F
$$

NEZ011>018-030>034-042>045-172000-
NORTHEAST NEBRASKA

CITY           SKY/WX    TMP DP  RH WIND       PRES   REMARKS
NORFOLK        SUNNY     75  36  24 SE6       30.01F
ALBION         SUNNY     77  36  22 CALM      30.04F
BLAIR          SUNNY     68  45  43 S10       30.06F
COLUMBUS       SUNNY     72  45  37 S5        30.05F
FREMONT        SUNNY     68  44  42 S7        30.05F
TEKAMAH        SUNNY     70  41  34 S9        30.04F
WAYNE          SUNNY     75  39  27 S6        30.02F
$$

NEZ050>053-065>068-078-088>093-172000-
SOUTHEAST NEBRASKA

CITY           SKY/WX    TMP DP  RH WIND       PRES   REMARKS
LINCOLN        SUNNY     70  44  39 S6        30.06F
OMAHA EPPLEY   SUNNY     68  44  42 S9        30.06F
BEATRICE       SUNNY     69  47  45 S10       30.07F
FALLS CITY     SUNNY     70  44  39 S8G18     30.08F
NEBRASKA CITY  SUNNY     70  47  43 S14       30.07F
PLATTSMOUTH    SUNNY     70  44  39 S10G16    30.06F
$$

NEZ044-045-051>053-067-172000-
OMAHA AREA

CITY           SKY/WX    TMP DP  RH WIND       PRES   REMARKS
OMAHA EPPLEY   SUNNY     68  44  42 S9        30.06F
BLAIR          SUNNY     68  45  43 S10       30.06F
FREMONT        SUNNY     68  44  42 S7        30.05F
MILLARD        SUNNY     70  46  43 S6        30.06F
OFFUTT AFB     SUNNY     70  44  40 S9        30.05F
PLATTSMOUTH    SUNNY     70  44  39 S10G16    30.06F
WAHOO          FAIR      70  41  34 SW7       30.06F
$$




USA.gov is the U.S. government's official web portal to all federal, state and local government web resources and services.